This demonstration page uses our WeatherBlox Daily Observations layout. Learn more.

Left ArrowRight Arrow

Hourly Observations for May 11, 2021

Temp ( °F °C ) Dew Point ( °F °C ) Humidity (%) Winds ( mph kmh ) Pressure ( in mb ) Visibility ( mi km ) Precip ( " mm )
12:56 am 00:56 Mostly Cloudy 47 8.3 34 1.1 61 61 NE 9 15 30.25 1025 10 16 0.00 0.00
1:56 am 01:56 Cloudy 45 7.2 33 0.6 63 63 NE 6 9 30.26 1025 10 16 0.00 0.00
2:56 am 02:56 Cloudy 44 6.7 32 0 63 63 NNE 5 7 30.26 1025 10 16 0.00 0.00
3:56 am 03:56 Cloudy 44 6.7 33 0.6 65 65 N 5 7 30.26 1025 10 16 0.00 0.00
4:56 am 04:56 Clear 43 6.1 31 -0.6 63 63 N 7 11 30.26 1025 10 16 0.00 0.00
5:56 am 05:56 Clear 41 5 31 -0.6 67 67 NNE 7 11 30.27 1025 10 16 0.00 0.00
6:56 am 06:56 Mostly Sunny 41 5 31 -0.6 67 67 N 7 11 30.29 1026 10 16 0.00 0.00
7:56 am 07:56 Cloudy 43 6.1 32 0 65 65 ENE 7 11 30.32 1027 10 16 0.00 0.00
8:56 am 08:56 Mostly Cloudy 45 7.2 35 1.7 68 68 ENE 10 17 30.33 1027 10 16 0.00 0.00
9:56 am 09:56 Sunny 48 8.9 37 2.8 66 66 E 10 17 30.31 1027 10 16 0.00 0.00
10:56 am 10:56 Sunny 52 11.1 38 3.3 59 59 ENE 10 17 30.28 1026 10 16 0.00 0.00
11:56 am 11:56 Partly Cloudy 57 13.9 38 3.3 49 49 E 14 22 30.27 1025 10 16 0.00 0.00
12:56 pm 12:56 Mostly Cloudy with Light Rain 56 13.3 34 1.1 44 44 E 13 20 30.29 1026 10 16 0.00 0.00
1:56 pm 13:56 Mostly Cloudy 56 13.3 35 1.7 46 46 E 13 20 30.29 1026 10 16 0.00 0.00
2:56 pm 14:56 Sunny 57 13.9 33 0.6 41 41 E 8 13 30.29 1026 10 16 0.00 0.00
3:56 pm 15:56 Mostly Cloudy 57 13.9 33 0.6 41 41 ESE 9 15 30.28 1025 10 16 0.00 0.00
4:56 pm 16:56 Sunny 58 14.4 34 1.1 41 41 ESE 14 22 30.27 1025 10 16 0.00 0.00
5:56 pm 17:56 Mostly Cloudy 57 13.9 33 0.6 41 41 ENE 13 20 30.28 1026 10 16 0.00 0.00
6:56 pm 18:56 Cloudy 56 13.3 33 0.6 42 42 E 9 15 30.30 1026 10 16 0.00 0.00
7:56 pm 19:56 Sunny 55 12.8 32 0 42 42 E 10 17 30.31 1026 10 16 0.00 0.00
8:56 pm 20:56 Clear 51 10.6 33 0.6 50 50 E 8 13 30.32 1027 10 16 0.00 0.00
9:56 pm 21:56 Clear 48 8.9 34 1.1 58 58 ESE 8 13 30.35 1028 10 16 0.00 0.00
10:56 pm 22:56 Cloudy 48 8.9 34 1.1 58 58 ESE 6 9 30.37 1028 10 16 0.00 0.00
11:56 pm 23:56 Cloudy 46 7.8 34 1.1 63 63 E 5 7 30.37 1028 10 16 0.00 0.00

Powered by AerisWeather